User: anonymous   Login
Location: Home
(42.5358°N, 72.7383°W)
Time: 02:44:02
(UTC-04:00)
Language:

DOVE 4 - Orbit

View from above orbital plane
View from above orbital plane
View from above satellite
View from above satellite

Ground track
Ground track

The orbit data is extracted from the following two-line orbital elements,

1 39430U 13066Q   22270.61936350  .00001067  00000-0  19672-3 0  9993
2 39430  97.7996 171.9490 0150372  82.7334 279.0948 14.60376836471201
Epoch (UTC): 27 September 2022 14:51:53
Eccentricity: 0.0150372
inclination: 97.7996°
perigee height: 585 km
apogee height: 798 km
right ascension of ascending node: 171.9490°
argument of perigee: 82.7334°
revolutions per day: 14.60376836
mean anomaly at epoch: 279.0948°
orbit number at epoch: 47120

The dashed part of the orbit path shows where the satellite is in the earth's shadow,  

DLR